Location: Grange Rosano
(44.4500°N, 6.9667°E)
Time: 21:18:53
(UTC+00:00)

Meteor 2-12 Rocket - Pass Details

Date: 26 May 2022
Orbit: 935 x 958 km, 82.5° (Epoch: 01 July)

Event Time Altitude Azimuth Distance (km) Brightness Sun altitude
Rises 00:42:07 0° 348° (NNW) 3,616 8.4 -22.4°
Reaches altitude 10° 00:44:38 10° 345° (NNW) 2,664 7.5 -22.2°
Maximum altitude 00:50:36 61° 267° (W) 1,054 4.5 -21.9°
Enters shadow 00:52:26 43° 209° (SSW) 1,292 4.6 -21.7°
